Location: Alsip
(41.6689°N, 87.7387°W)
Time: 14:33:04
(UTC+00:00)

Meteor 2-9 Rocket - Pass Details

Date: 14 July 2020
Orbit: 792 x 894 km, 81.3° (Epoch: 13 August)

Event Time Altitude Azimuth Distance (km) Brightness Sun altitude
Exits shadow 09:36:51 - 195° (SSW) 2,801 6.4 -8.9°
Reaches altitude 10° 09:38:00 10° 196° (SSW) 2,352 6.0 -8.7°
Maximum altitude 09:43:17 71° 281° (W) 841 4.1 -7.9°
Drops below altitude 10° 09:48:38 10° 5° (N) 2,384 7.2 -7.1°
Sets 09:51:03 0° 8° (N) 3,329 8.1 -6.8°
